sat.trackr.live / text

‹ back to catalog

QZS-4 (QZSS/PRN 195)

NORAD 42965 · 2017-062A

PAYLOAD ACTIVE UNKNOWN

§ Identity

Operator
Country
JPN
Launch date
2017-10-09
Launch site
TANSC
Launch vehicle
Mass (kg)
RCS (m²)

Purposes: comms, nav

External: N2YO · Heavens-Above · Gunter

§ Orbital elements

Epoch: 2026-05-24T09:34:51.739680Z

Period
1,436.29 min
Inclination
40.1220°
Eccentricity
0.0745359
Mean motion
1.00258100 rev/d
Perigee alt
32,647.4 km
Apogee alt
38,933.5 km
Semi-major
42,168.6 km
B*
0.0000e+0
RAAN
343.7839°
Arg perigee
271.4032°
Mean anomaly
269.2555°
Rev number
3,156

§ Raw data

QZS-4 (QZSS/PRN 195)1 42965U 17062A   26144.39920995 -.00000356  00000+0  00000+0 0  99982 42965  40.1220 343.7839 0745359 271.4032 269.2555  1.00258100 31562

JSON: /api/v1/satellites/42965 · /tle

For live sub-satellite position, see the globe view (requires WebGL).

§ Visibility from observer

Set your observer location to see the next 7 days of passes ≥ 10°. The values pass through the URL so the page stays shareable.

No JS? Fill the form by hand. The geolocation button needs JavaScript.